Date,TemperatureHighF,TemperatureAvgF,TemperatureLowF,DewpointHighF,DewpointAvgF,DewpointLowF,HumidityHigh,HumidityAvg,HumidityLow,PressureMaxIn,PressureMinIn,WindSpeedMaxMPH,WindSpeedAvgMPH,GustSpeedMaxMPH,PrecipitationSumIn
2013-2-1,31.4,28.8,25.4,16.9,12.8,6.2,64,51,40,30.18,29.73,34,8,37,0.00
2013-2-2,29.9,26.4,22.1,23.0,13.2,7.1,92,58,42,30.30,30.08,22,6,23,0.00
2013-2-3,30.9,27.0,22.2,23.2,20.0,17.1,93,75,61,30.08,29.76,13,2,13,0.00
2013-2-4,30.9,27.7,25.5,24.3,14.6,10.1,86,58,45,29.98,29.77,23,7,23,0.00
2013-2-5,30.0,28.2,26.1,28.1,24.3,12.3,94,86,54,30.00,29.91,13,3,14,0.00
2013-2-6,38.8,32.7,26.6,29.5,23.7,3.1,96,72,32,30.35,29.91,18,4,18,0.03
2013-2-7,32.3,28.2,24.9,23.1,11.5,1.0,73,50,32,30.52,30.34,19,3,19,0.00
2013-2-8,36.0,32.7,27.2,32.3,30.3,21.9,98,91,69,30.39,29.49,36,9,36,0.16
2013-2-9,28.5,24.5,21.3,26.5,16.9,7.2,97,75,44,30.27,29.59,30,9,30,0.00
2013-2-10,34.2,24.5,18.2,20.1,11.1,5.2,83,57,38,30.46,30.27,17,3,19,0.00
2013-2-11,46.8,38.6,23.0,46.3,37.3,18.6,99,95,83,30.37,29.66,22,2,22,0.34
2013-2-12,42.9,39.4,35.0,41.3,31.7,27.8,99,75,59,29.95,29.68,26,6,26,0.01
2013-2-13,42.3,35.0,28.1,30.9,27.1,23.6,91,73,51,29.94,29.66,8,1,0,0.00
2013-2-14,42.6,35.4,30.2,33.5,29.6,22.6,96,80,45,30.02,29.70,11,2,0,0.06
2013-2-15,46.3,40.2,32.2,39.9,36.8,31.4,98,88,71,30.04,29.93,18,4,18,0.01
2013-2-16,39.9,35.1,30.0,37.5,30.1,23.9,94,82,62,29.95,29.67,16,4,19,0.00
2013-2-17,30.3,25.7,18.3,26.0,11.3,4.7,89,55,35,29.86,29.55,32,11,36,0.00
2013-2-18,32.2,24.3,18.2,15.2,10.1,5.7,62,55,44,30.23,29.85,36,9,36,0.00
2013-2-19,45.8,37.8,26.2,45.0,31.5,13.5,98,79,51,30.23,29.69,18,4,19,0.26
2013-2-21,34.5,29.7,26.1,20.3,17.1,14.5,72,59,50,30.24,29.89,25,9,25,0.00
2013-2-22,37.9,32.1,26.3,28.4,24.2,18.1,81,73,62,30.40,30.23,20,3,20,0.00
2013-2-23,40.2,36.9,33.5,37.8,34.3,28.0,97,90,80,30.30,29.78,20,4,22,0.17
2013-2-24,39.8,36.9,32.8,38.8,35.4,29.7,98,94,83,29.92,29.69,19,4,19,0.06
2013-2-25,45.2,37.2,32.1,32.7,29.5,26.7,88,74,52,30.25,29.92,12,2,12,0.00
2013-2-26,41.4,37.4,34.3,35.7,33.1,29.2,95,84,68,30.33,30.00,19,3,23,0.10
2013-2-27,46.3,41.8,37.0,45.8,41.2,35.7,99,97,91,30.01,29.53,38,7,38,1.07
2013-2-28,47.0,40.5,36.3,43.1,38.4,35.0,97,92,83,29.64,29.54,10,1,0,0.05